Forside
METAR-TAF:

METAR-TAF

Lufthavne :

Vinton Veterans Memorial Airpark

Vinton, Iowa, USA

Breddekreds: 42-13-07N, længdekreds: 092-01-33W, højde: 258 m

Aktuelle vejr

Denne rapport blev lavet for 28 minutter siden, kl. 08:55 UTC
Vind 4 kt fra sydsydvest
Temperatur 2°C
Fugtighed 87%
Tryk 1010 hPa
Sigt: 16.1 km
skyfri

METAR: KVTI 270855Z AUTO 20004KT 10SM CLR 02/00 A2982 RMK AO2 T00201005

Tid: 03:23 (09:23 UTC)


TAF: fraværende

Vejrobservationer og prognoser fra mere end 4000 lufthavne (METAR og TAF).

De gule og røde prikker repræsenterer de meteorologiske stationer.

Flyt musen over at se navnet på stationen.

Så klik over at se vejr observationer og prognoser.

At skifte det kort: Klik på de grønne knapper med et sort kors for at zoome ind; på den grønne knap med en bindestreg for at zoome ud; eller på de grønne pile for tilstødende kort.


METAR-TAF: